When you browse on this site, cookies collect data to enhance your experience and personalize the content and advertising you see.
Visit our Privacy Policy to learn more. By continuing to use the site, you agree to this use of cookies and data.
  • In Romania
  • List of Countries
  • For 7 days
  • Water Temperature
  • Weather Map
  • Weather Widgets
  • user-avatar
    Login

    Hourly Weather Dubovyy Umet

    Today, 29 May, Friday

    Time Temperature Precipitation Wind Pressure Humidity
    00:00 +12°C° 0 mm 3 mps 754 mmHg 84%
    01:00 +12°C° 0 mm 3 mps 754 mmHg 85%
    02:00 +12°C° 0 mm 3 mps 754 mmHg 87%
    03:00 +11°C° 0 mm 3 mps 755 mmHg 88%
    04:00 +12°C° 0 mm 3 mps 755 mmHg 84%
    05:00 +13°C° 0 mm 3 mps 755 mmHg 81%
    06:00 +14°C° 0 mm 4 mps 754 mmHg 78%
    07:00 +17°C° 0 mm 4 mps 754 mmHg 73%
    08:00 +19°C° 0 mm 4 mps 754 mmHg 67%
    09:00 +20°C° 0 mm 4 mps 754 mmHg 62%
    10:00 +21°C° 0 mm 4 mps 754 mmHg 59%
    11:00 +22°C° 0 mm 4 mps 754 mmHg 57%
    12:00 +23°C° 0 mm 4 mps 753 mmHg 55%
    13:00 +23°C° 0 mm 5 mps 753 mmHg 54%
    14:00 +25°C° 0 mm 5 mps 753 mmHg 54%
    15:00 +25°C° 0 mm 5 mps 753 mmHg 53%
    16:00 +23°C° 0 mm 4 mps 752 mmHg 57%
    17:00 +22°C° 0 mm 4 mps 752 mmHg 62%
    18:00 +22°C° 0 mm 4 mps 752 mmHg 67%
    19:00 +20°C° 0 mm 4 mps 751 mmHg 70%
    20:00 +19°C° 0 mm 4 mps 751 mmHg 74%
    21:00 +17°C° 0 mm 4 mps 751 mmHg 78%
    22:00 +15°C° 0 mm 4 mps 751 mmHg 80%
    23:00 +15°C° 0 mm 4 mps 751 mmHg 82%

    Tomorrow, 30 May, Saturday

    Time Temperature Precipitation Wind Pressure Humidity
    00:00 +14°C° 0 mm 4 mps 750 mmHg 84%
    01:00 +13°C° 0 mm 4 mps 750 mmHg 85%
    02:00 +13°C° 0 mm 3 mps 750 mmHg 86%
    03:00 +12°C° 0 mm 3 mps 750 mmHg 87%
    04:00 +13°C° 0 mm 4 mps 750 mmHg 84%
    05:00 +14°C° 0 mm 4 mps 749 mmHg 81%
    06:00 +15°C° 0 mm 4 mps 749 mmHg 78%
    07:00 +17°C° 0 mm 5 mps 749 mmHg 72%
    08:00 +20°C° 0 mm 5 mps 749 mmHg 66%
    09:00 +22°C° 0 mm 5 mps 749 mmHg 60%
    10:00 +25°C° 0 mm 5 mps 748 mmHg 58%
    11:00 +26°C° 0 mm 5 mps 748 mmHg 55%
    12:00 +27°C° 0 mm 5 mps 748 mmHg 52%
    13:00 +27°C° 0 mm 5 mps 747 mmHg 53%
    14:00 +28°C° 0 mm 5 mps 747 mmHg 54%
    15:00 +28°C° 0 mm 5 mps 747 mmHg 56%
    16:00 +27°C° 0 mm 5 mps 746 mmHg 61%
    17:00 +26°C° 0 mm 4 mps 746 mmHg 66%
    18:00 +25°C° 0 mm 3 mps 745 mmHg 71%
    19:00 +25°C° 0 mm 4 mps 745 mmHg 72%
    20:00 +23°C° 0 mm 5 mps 744 mmHg 74%
    21:00 +22°C° 0 mm 6 mps 744 mmHg 76%
    22:00 +22°C° 0 mm 5 mps 743 mmHg 75%
    23:00 +22°C° 0 mm 4 mps 742 mmHg 75%

    Day after tomorrow, 31 May, Sunday

    Time Temperature Precipitation Wind Pressure Humidity
    00:00 +21°C° 0 mm 4 mps 742 mmHg 74%
    01:00 +21°C° 0.1 mm 4 mps 742 mmHg 77%
    02:00 +20°C° 0.1 mm 4 mps 742 mmHg 79%
    03:00 +20°C° 0.1 mm 4 mps 741 mmHg 81%
    04:00 +20°C° 0.3 mm 3 mps 741 mmHg 82%
    05:00 +20°C° 0.3 mm 3 mps 741 mmHg 83%
    06:00 +20°C° 0.3 mm 3 mps 741 mmHg 84%
    07:00 +21°C° 0.1 mm 3 mps 741 mmHg 82%
    08:00 +22°C° 0.1 mm 3 mps 741 mmHg 80%
    09:00 +24°C° 0.1 mm 3 mps 741 mmHg 78%
    10:00 +22°C° 0.1 mm 5 mps 741 mmHg 79%
    11:00 +21°C° 0.1 mm 6 mps 741 mmHg 81%
    12:00 +20°C° 0.1 mm 8 mps 741 mmHg 83%
    13:00 +21°C° 0.1 mm 8 mps 742 mmHg 79%
    14:00 +22°C° 0.1 mm 8 mps 742 mmHg 74%
    15:00 +22°C° 0.1 mm 8 mps 742 mmHg 69%
    16:00 +22°C° 0.3 mm 7 mps 742 mmHg 71%
    17:00 +21°C° 0.3 mm 6 mps 742 mmHg 73%
    18:00 +20°C° 0.3 mm 5 mps 742 mmHg 74%
    19:00 +19°C° 0.1 mm 5 mps 742 mmHg 78%
    20:00 +17°C° 0.1 mm 4 mps 742 mmHg 81%
    21:00 +15°C° 0.1 mm 4 mps 742 mmHg 85%
    22:00 +15°C° 0.1 mm 4 mps 742 mmHg 87%
    23:00 +14°C° 0.1 mm 4 mps 742 mmHg 89%

    1 June, Monday

    Time Temperature Precipitation Wind Pressure Humidity
    00:00 +13°C° 0.1 mm 4 mps 742 mmHg 91%
    01:00 +13°C° 0.1 mm 4 mps 742 mmHg 90%
    02:00 +13°C° 0.1 mm 5 mps 741 mmHg 89%
    03:00 +13°C° 0.1 mm 5 mps 741 mmHg 88%
    04:00 +13°C° 0.2 mm 6 mps 741 mmHg 87%
    05:00 +13°C° 0.2 mm 6 mps 741 mmHg 87%
    06:00 +11°C° 0.2 mm 7 mps 741 mmHg 86%
    07:00 +11°C° 0 mm 6 mps 742 mmHg 85%
    08:00 +11°C° 0 mm 6 mps 742 mmHg 83%
    09:00 +10°C° 0 mm 5 mps 743 mmHg 81%
    10:00 +12°C° 0.1 mm 5 mps 743 mmHg 76%
    11:00 +13°C° 0.1 mm 4 mps 744 mmHg 71%
    12:00 +14°C° 0.1 mm 4 mps 744 mmHg 66%
    13:00 +15°C° 0.3 mm 4 mps 744 mmHg 65%
    14:00 +15°C° 0.3 mm 5 mps 745 mmHg 63%
    15:00 +16°C° 0.3 mm 5 mps 745 mmHg 61%
    16:00 +15°C° 0.2 mm 5 mps 745 mmHg 64%
    17:00 +14°C° 0.2 mm 4 mps 745 mmHg 66%
    18:00 +14°C° 0.2 mm 4 mps 745 mmHg 68%
    19:00 +12°C° 0 mm 4 mps 745 mmHg 72%
    20:00 +11°C° 0 mm 3 mps 745 mmHg 75%
    21:00 +9°C° 0 mm 3 mps 745 mmHg 79%
    22:00 +8°C° 0 mm 3 mps 745 mmHg 82%
    23:00 +8°C° 0 mm 2 mps 745 mmHg 85%

    2 June, Tuesday

    Time Temperature Precipitation Wind Pressure Humidity
    00:00 +7°C° 0 mm 2 mps 745 mmHg 88%
    01:00 +7°C° 0 mm 2 mps 745 mmHg 90%
    02:00 +6°C° 0 mm 2 mps 745 mmHg 92%
    03:00 +6°C° 0 mm 2 mps 745 mmHg 94%
    04:00 +7°C° 0 mm 2 mps 745 mmHg 92%
    05:00 +9°C° 0 mm 1 mps 745 mmHg 89%
    06:00 +10°C° 0 mm 1 mps 745 mmHg 87%
    07:00 +11°C° 0 mm 1 mps 745 mmHg 81%
    08:00 +12°C° 0 mm 1 mps 746 mmHg 76%
    09:00 +13°C° 0 mm 0 mps 746 mmHg 71%
    10:00 +15°C° 0.4 mm 1 mps 746 mmHg 67%
    11:00 +15°C° 0.4 mm 1 mps 746 mmHg 62%
    12:00 +16°C° 0.4 mm 1 mps 745 mmHg 58%
    13:00 +16°C° 0.7 mm 1 mps 745 mmHg 58%
    14:00 +18°C° 0.7 mm 1 mps 745 mmHg 57%
    15:00 +18°C° 0.7 mm 1 mps 745 mmHg 57%
    16:00 +16°C° 0.4 mm 2 mps 745 mmHg 61%
    17:00 +16°C° 0.4 mm 2 mps 745 mmHg 66%
    18:00 +14°C° 0.4 mm 3 mps 744 mmHg 70%
    19:00 +14°C° 0 mm 2 mps 744 mmHg 75%
    20:00 +12°C° 0 mm 2 mps 744 mmHg 80%
    21:00 +10°C° 0 mm 2 mps 745 mmHg 85%
    22:00 +9°C° 0 mm 2 mps 745 mmHg 87%
    23:00 +9°C° 0 mm 2 mps 744 mmHg 89%

    3 June, Wednesday

    Time Temperature Precipitation Wind Pressure Humidity
    00:00 +8°C° 0 mm 2 mps 744 mmHg 91%
    01:00 +8°C° 0 mm 2 mps 744 mmHg 92%
    02:00 +7°C° 0 mm 2 mps 744 mmHg 92%
    03:00 +7°C° 0 mm 2 mps 744 mmHg 93%
    04:00 +8°C° 0.3 mm 2 mps 744 mmHg 91%
    05:00 +9°C° 0.3 mm 3 mps 744 mmHg 90%
    06:00 +10°C° 0.3 mm 3 mps 744 mmHg 88%
    07:00 +10°C° 0.4 mm 4 mps 744 mmHg 88%
    08:00 +9°C° 0.4 mm 5 mps 744 mmHg 87%
    09:00 +9°C° 0.4 mm 6 mps 744 mmHg 86%
    10:00 +10°C° 0.1 mm 6 mps 744 mmHg 81%
    11:00 +11°C° 0.1 mm 6 mps 744 mmHg 77%
    12:00 +13°C° 0.1 mm 6 mps 744 mmHg 72%
    13:00 +14°C° 0.1 mm 6 mps 744 mmHg 70%
    14:00 +14°C° 0.1 mm 5 mps 744 mmHg 68%
    15:00 +14°C° 0.1 mm 5 mps 744 mmHg 66%
    16:00 +14°C° 0.2 mm 4 mps 744 mmHg 68%
    17:00 +14°C° 0.2 mm 4 mps 744 mmHg 70%
    18:00 +14°C° 0.2 mm 4 mps 745 mmHg 72%
    19:00 +12°C° 0.1 mm 4 mps 745 mmHg 76%
    20:00 +11°C° 0.1 mm 3 mps 745 mmHg 79%
    21:00 +10°C° 0.1 mm 3 mps 745 mmHg 83%
    22:00 +9°C° 0 mm 3 mps 746 mmHg 83%
    23:00 +9°C° 0 mm 3 mps 746 mmHg 84%
    Show more